Regional Weather Roundup
Issued by NWS

Home | Current Version | Previous Version | Text Only | Print | Product List | Glossary On
Versions: 1 2 3 4 5 6 7 8 9 10 11 12 13 14 15 16 17 18 19 20 21 22 23 24 25 26 27 28 29 30 31 32 33 34 35 36 37 38 39 40 41 42 43 44 45 46 47 48 49 50
000
ASUS43 KDMX 071807
RWRIA

WEATHER ROUNDUP FOR IOWA
NATIONAL WEATHER SERVICE DES MOINES IA
100 PM CDT TUE JUL 07 2015

NOTE: "FAIR" INDICATES FEW OR NO CLOUDS BELOW 12,000 FEET WITH NO
SIGNIFICANT WEATHER AND/OR OBSTRUCTIONS TO VISIBILITY.

* - THESE STATIONS ARE NOT NWS STATIONS...THUS NOT UNDER NWS
QUALITY CONTROL.  THEY ALSO DO NOT REPORT WEATHER SUCH
AS PRECIPITATION OR FOG.

IAZ001>003-012>014-020>022-031>034-043>046-071900-
   NORTHWEST IOWA

CITY           SKY/WX    TMP DP  RH WIND       PRES   REMARKS
CARROLL *      SUNNY     66  50  55 NE15      30.15S
CHEROKEE *     SUNNY     65  51  58 N5        30.17F
DENISON *      SUNNY     66  52  59 NE10G18   30.14S
LE MARS *      PTSUNNY   64  48  55 N8        30.20S
ORANGE CITY *  MOSUNNY   63  48  59 N6        30.19F
SHELDON *      SUNNY     64  48  55 N9        30.18F
SIOUX CITY     SUNNY     69  49  48 N10       30.17F
6HR MIN TEMP:  55; 6HR MAX TEMP:  69;

SPENCER        SUNNY     67  45  45 N13       30.18F
6HR MIN TEMP:  50; 6HR MAX TEMP:  67;

STORM LAKE *   SUNNY     64  50  59 N15       30.17F
$$

IAZ055>058-069>071-079>083-090>094-071900-
   SOUTHWEST IOWA

CITY           SKY/WX    TMP DP  RH WIND       PRES   REMARKS
ATLANTIC *     MOSUNNY   68  52  56 NE13G18   30.14S
AUDUBON *      SUNNY     66  52  59 N12G20    30.15F
CLARINDA *     SUNNY     70  55  60 NE10      30.14S
COUNCIL BLFS * SUNNY     66  52  59 NE15      30.15F
CRESTON *      SUNNY     68  54  60 N16       30.11S
HARLAN  *      MOSUNNY   66  52  59 N15G21    30.18S
LAMONI         MOSUNNY   71  57  61 NE9G17    30.10R
6HR MIN TEMP:  59; 6HR MAX TEMP:  72;

RED OAK *      SUNNY     70  52  52 NE9G20    30.14S
SHENANDOAH *   SUNNY     70  52  52 N14       30.14R
$$

IAZ047>049-059>061-072>074-084-071900-
   CENTRAL IOWA

CITY           SKY/WX    TMP DP  RH WIND       PRES   REMARKS
AMES           SUNNY     68  51  54 NE9G18    30.12F
6HR MIN TEMP:  54; 6HR MAX TEMP:  69;

ANKENY *       MOSUNNY   68  52  56 N9G17     30.11S
CHARITON *     MOSUNNY   68  57  68 N13G18    30.09S
DES MOINES     MOSUNNY   70  50  49 N12       30.10F
6HR MIN TEMP:  59; 6HR MAX TEMP:  71;

GRINNELL*      PTSUNNY   67  55  64 N10       30.10F
KNOXVILLE *    PTSUNNY   68  54  60 NE16      30.08F
MARSHALLTOWN   MOSUNNY   68  52  56 NE12      30.10F
6HR MIN TEMP:  55; 6HR MAX TEMP:  68;

PELLA *        MOSUNNY   71  59  67 N7        30.10F
PERRY *          N/A     68  52  56 N14       30.13S
$$

IAZ004>006-015-016-023>025-035-036-071900-
   NORTH CENTRAL IOWA

CITY           SKY/WX    TMP DP  RH WIND       PRES   REMARKS
ALGONA *       SUNNY     64  48  55 N10G17    30.16F
CLARION *      PTSUNNY   64  50  59 N12       30.14F
ESTHERVILLE    PTSUNNY   63  48  58 N13       30.17F
6HR MIN TEMP:  50; 6HR MAX TEMP:  64;

FORT DODGE *   SUNNY     66  48  52 N12       30.15F
MASON CITY     PTSUNNY   66  50  56 NE12G18   30.16S
6HR MIN TEMP:  53; 6HR MAX TEMP:  67;

FOREST CITY *  MOSUNNY   63  46  55 N7        30.16S
IOWA FALLS *   PTSUNNY   66  52  59 N10G16    30.13F
$$

IAZ007>011-017>019-026>030-037>042-050>054-066-071900-
   NORTHEAST IOWA

CITY           SKY/WX    TMP DP  RH WIND       PRES   REMARKS
CEDAR RAPIDS   MOSUNNY   69  57  65 N9        30.07S
6HR MIN TEMP:  59; 6HR MAX TEMP:  70;

CHARLES CITY * MOSUNNY   64  50  59 VRB7G17   30.13S
CLINTON *      MOSUNNY   70  55  60 N13G18    30.07S
DECORAH *        N/A    N/A N/A N/A MISG        N/A
DUBUQUE        PTSUNNY   66  53  63 N9        30.08R
6HR MIN TEMP:  58; 6HR MAX TEMP:  68;

MONTICELLO *   PTSUNNY   68  55  64 N8        30.07S
OELWEIN *      MOSUNNY   66  50  55 N13       30.11S
WATERLOO       MOSUNNY   68  50  52 NE13      30.10S
6HR MIN TEMP:  56; 6HR MAX TEMP:  68;

$$

IAZ064-065-067-068-078-071900-
   EAST CENTRAL IOWA

CITY           SKY/WX    TMP DP  RH WIND       PRES   REMARKS
DAVENPORT      PTSUNNY   69  58  67 N14       30.05S HAZE
6HR MIN TEMP:  61; 6HR MAX TEMP:  70;

IOWA CITY      PTSUNNY   69  55  60 N13G22    30.07S HAZE
6HR MIN TEMP:  62; 6HR MAX TEMP:  71;

MT. PLEASANT * PTSUNNY   73  51  45 N12G18    30.06S HAZE
MUSCATINE *    MOSUNNY   72  57  60 NE12      30.06S HAZE
QUAD CITIES    PTSUNNY   70  55  59 N10       30.03S HAZE
6HR MIN TEMP:  63; 6HR MAX TEMP:  73;

$$

IAZ062-063-075>077-085>089-095>099-071900-
   SOUTHEAST IOWA

CITY           SKY/WX    TMP DP  RH WIND       PRES   REMARKS
BURLINGTON     MOSUNNY   73  60  63 NE12      30.04R HAZE
6HR MIN TEMP:  63; 6HR MAX TEMP:  73;

FAIRFIELD *    PTSUNNY   70  57  64 N12G18    30.07S
KEOKUK *       MOSUNNY   72  59  64 N8G16     30.04R
OSKALOOSA *      N/A     69  57  66 NE12G18   30.08F
CENTERVILLE *  MOSUNNY   70  57  64 N10       30.09S
OTTUMWA        MOSUNNY   70  58  65 N13       30.06S
6HR MIN TEMP:  60; 6HR MAX TEMP:  71;

WASHINGTON *   PTSUNNY   72  59  64 N13       30.07F HAZE
$$

ABBREVIATIONS USED IN REMARKS
   TC - TEMPERATURES IN CELSIUS
  WCI - WIND CHILL INDEX
   HX - HEAT INDEX
  VSB - VISIBILITY
$$




USA.gov is the U.S. government's official web portal to all federal, state and local government web resources and services.